User: anonymous   Login
Location: Vancouver
(49.2500°N, 123.1330°W)
Time: 05:53:06
(UTC-07:00)
Language:

ISS - Orbit

View from above orbital plane
View from above orbital plane
View from above satellite
View from above satellite

Ground track
Ground track

The orbit data is extracted from the following two-line orbital elements,

1 25544U 98067A   17266.54509468  .00016717  00000-0  10270-3 0  9011
2 25544  51.6379 268.0029 0004135 314.2890  45.7923 15.54234212 37043
Epoch (UTC): 23 September 2017 13:04:56
Eccentricity: 0.0004135
inclination: 51.6379°
perigee height: 401 km
apogee height: 407 km
right ascension of ascending node: 268.0029°
argument of perigee: 314.2890°
revolutions per day: 15.54234212
mean anomaly at epoch: 45.7923°
orbit number at epoch: 3704

The dashed part of the orbit path shows where the satellite is in the earth's shadow,  

DLR